User: anonymous   Login
Location: Hoyos del Collado
(40.3594°N, 5.2003°W)
Time: 11:19:36
(UTC+00:00)
Language:

Cosmos 2100 Rocket - Orbit

View from above orbital plane
View from above orbital plane
View from above satellite
View from above satellite

Ground track
Ground track

The orbit data is extracted from the following two-line orbital elements,

1 20805U 90083B   24167.93039774  .00000173  00000-0  16168-3 0  9993
2 20805  82.9362 323.1389 0032067  93.9472  16.8922 13.76105464694585
Epoch (UTC): 15 June 2024 22:19:46
Eccentricity: 0.0032067
inclination: 82.9362°
perigee height: 954 km
apogee height: 1001 km
right ascension of ascending node: 323.1389°
argument of perigee: 93.9472°
revolutions per day: 13.76105464
mean anomaly at epoch: 16.8922°
orbit number at epoch: 69458

The dashed part of the orbit path shows where the satellite is in the earth's shadow,  

DLR